Location: Haram ta Haram Freeway
(35.0583°N, 51.4202°E)
Time: 07:07:50
(UTC+04:30)

Hubble Space Telescope - Pass Details

Date: 01 August 2021
Orbit: 535 x 539 km, 28.5° (Epoch: 19 September)

Event Time Altitude Azimuth Distance (km) Brightness Sun altitude
Rises 20:32:22 0° 261° (W) 2,669 5.3 -5.5°
Reaches altitude 10° 20:34:59 10° 246° (WSW) 1,777 4.0 -6.0°
Maximum altitude 20:38:12 22° 194° (SSW) 1,183 2.4 -6.6°
Drops below altitude 10° 20:41:25 10° 142° (SE) 1,772 2.8 -7.2°
Enters shadow 20:42:00 - 138° (SE) 1,956 3.0 -7.3°
